Location: Albany
(35.0170°S, 117.8920°E)
Time: 20:33:09
(UTC+08:00)

A-11 Canister half - Pass Details

Date: 22 January 2021
Orbit: 1525 x 1684 km, 47.3° (Epoch: 03 March)

Event Time Altitude Azimuth Distance (km) Brightness Sun altitude
Rises 04:25:33 0° 281° (WNW) 4,932 - -10.1°
Exits shadow 04:27:56 - 278° (W) 4,215 10.7 -9.7°
Reaches altitude 10° 04:28:53 10° 276° (W) 3,937 10.6 -9.5°
Maximum altitude 04:38:41 52° 201° (SSW) 1,980 9.7 -7.8°
Drops below altitude 10° 04:48:14 10° 126° (SE) 3,839 12.9 -6.1°
Sets 04:51:28 0° 120° (ESE) 4,803 14.6 -5.6°
